contact:dominique.lefevre@mio.osupytheas.fr, maurice.libes@osupytheas.fr, didier.mallarino@osupytheas.fr
Project:EMSO http://www.emso-fr.org/EMSO-France
Depth: 2436.0 m
Title:EMSO Ligure Ouest : Data MII capteur CSTAR
DateTime,Latitude,Longitude,Instrument_Serial,Reference_Counts,Signal_Counts,Corrected_Signal_raw_counts,Calculated_Beam_c_inverse_meters,Internal_thermistor_counts
DateTime,Latitude,Longitude,Instrument_Serial,Reference_Counts,Signal_Counts,Corrected_Signal_raw_counts,Calculated_Beam_c_inverse_meters,Internal_thermistor_counts
2020-05-23T00:02:54,42.805,6.029,CST-1368DR,6290,8815,15162,0.118,551
2020-05-23T00:05:56,42.805,6.029,CST-1368DR,6290,8814,15160,0.119,551
2020-05-23T00:08:58,42.805,6.029,CST-1368DR,6290,8816,15163,0.118,551
2020-05-23T00:11:59,42.805,6.029,CST-1368DR,6290,8816,15163,0.118,551
2020-05-23T00:15:01,42.805,6.029,CST-1368DR,6290,8816,15163,0.118,551
2020-05-23T00:18:03,42.805,6.029,CST-1368DR,6290,8816,15163,0.118,551
2020-05-23T00:21:04,42.805,6.029,CST-1368DR,6290,8816,15163,0.118,551
2020-05-23T00:24:06,42.805,6.029,CST-1368DR,6290,8814,15160,0.119,551
2020-05-23T00:27:08,42.805,6.029,CST-1368DR,6290,8816,15163,0.118,551
2020-05-23T00:30:10,42.805,6.029,CST-1368DR,6290,8816,15163,0.118,550
2020-05-23T00:33:11,42.805,6.029,CST-1368DR,6290,8812,15157,0.119,551
2020-05-23T00:36:13,42.805,6.029,CST-1368DR,6290,8814,15160,0.119,551
2020-05-23T00:39:15,42.805,6.029,CST-1368DR,6290,8816,15163,0.118,551
2020-05-23T00:42:16,42.805,6.029,CST-1368DR,6290,8816,15163,0.118,551
2020-05-23T00:45:18,42.805,6.029,CST-1368DR,6290,8813,15159,0.119,551
2020-05-23T00:48:20,42.805,6.029,CST-1368DR,6290,8815,15162,0.118,551
2020-05-23T00:51:22,42.805,6.029,CST-1368DR,6290,8815,15161,0.118,550
2020-05-23T00:54:23,42.805,6.029,CST-1368DR,6290,8814,15160,0.119,551
2020-05-23T00:57:25,42.805,6.029,CST-1368DR,6290,8815,15162,0.118,551
2020-05-23T01:00:27,42.805,6.029,CST-1368DR,6290,8817,15164,0.117,551
2020-05-23T01:03:28,42.805,6.029,CST-1368DR,6290,8817,15164,0.117,551
2020-05-23T01:06:30,42.805,6.029,CST-1368DR,6290,8816,15163,0.118,551
2020-05-23T01:09:32,42.805,6.029,CST-1368DR,6290,8815,15162,0.118,551
2020-05-23T01:12:33,42.805,6.029,CST-1368DR,6290,8816,15164,0.117,551
2020-05-23T01:15:35,42.805,6.029,CST-1368DR,6290,8816,15163,0.118,550
2020-05-23T01:18:37,42.805,6.029,CST-1368DR,6290,8815,15161,0.118,551
2020-05-23T01:21:39,42.805,6.029,CST-1368DR,6290,8816,15163,0.118,551
2020-05-23T01:24:40,42.805,6.029,CST-1368DR,6290,8815,15161,0.118,551
2020-05-23T01:27:42,42.805,6.029,CST-1368DR,6290,8815,15161,0.118,551
2020-05-23T01:30:44,42.805,6.029,CST-1368DR,6290,8816,15163,0.118,551
2020-05-23T01:33:45,42.805,6.029,CST-1368DR,6290,8816,15163,0.118,551
2020-05-23T01:36:47,42.805,6.029,CST-1368DR,6290,8810,15153,0.120,551
2020-05-23T01:39:49,42.805,6.029,CST-1368DR,6290,8813,15158,0.119,551
2020-05-23T01:42:51,42.805,6.029,CST-1368DR,6290,8814,15160,0.119,551
2020-05-23T01:45:52,42.805,6.029,CST-1368DR,6290,8815,15162,0.118,551
2020-05-23T01:48:54,42.805,6.029,CST-1368DR,6290,8813,15159,0.119,551
2020-05-23T01:51:56,42.805,6.029,CST-1368DR,6290,8814,15160,0.119,551
2020-05-23T01:54:57,42.805,6.029,CST-1368DR,6290,8814,15160,0.119,551
2020-05-23T01:57:59,42.805,6.029,CST-1368DR,6290,8815,15162,0.118,550
2020-05-23T02:01:01,42.805,6.029,CST-1368DR,6290,8815,15162,0.118,551
2020-05-23T02:04:02,42.805,6.029,CST-1368DR,6290,8816,15163,0.118,551
2020-05-23T02:07:04,42.805,6.029,CST-1368DR,6290,8815,15162,0.118,551
2020-05-23T02:10:06,42.805,6.029,CST-1368DR,6290,8816,15163,0.118,551
2020-05-23T02:13:08,42.805,6.029,CST-1368DR,6290,8814,15160,0.119,551
2020-05-23T02:16:10,42.805,6.029,CST-1368DR,6290,8816,15163,0.118,551
2020-05-23T02:19:11,42.805,6.029,CST-1368DR,6290,8813,15159,0.119,551
2020-05-23T02:22:13,42.805,6.029,CST-1368DR,6290,8810,15154,0.120,551
2020-05-23T02:25:15,42.805,6.029,CST-1368DR,6290,8815,15162,0.118,550
2020-05-23T02:28:16,42.805,6.029,CST-1368DR,6290,8814,15160,0.119,551
2020-05-23T02:31:18,42.805,6.029,CST-1368DR,6290,8811,15155,0.120,551
2020-05-23T02:34:20,42.805,6.029,CST-1368DR,6290,8816,15163,0.118,551
2020-05-23T02:37:21,42.805,6.029,CST-1368DR,6290,8815,15162,0.118,551
2020-05-23T02:40:23,42.805,6.029,CST-1368DR,6290,8815,15162,0.118,551
2020-05-23T02:43:25,42.805,6.029,CST-1368DR,6290,8810,15153,0.120,551
2020-05-23T02:46:26,42.805,6.029,CST-1368DR,6290,8817,15164,0.117,551
2020-05-23T02:49:28,42.805,6.029,CST-1368DR,6290,8816,15163,0.118,550
2020-05-23T02:52:30,42.805,6.029,CST-1368DR,6290,8816,15164,0.117,551
2020-05-23T02:55:32,42.805,6.029,CST-1368DR,6290,8812,15157,0.119,551
2020-05-23T02:58:33,42.805,6.029,CST-1368DR,6290,8814,15160,0.119,551
2020-05-23T03:01:35,42.805,6.029,CST-1368DR,6289,8814,15162,0.118,551
2020-05-23T03:04:37,42.805,6.029,CST-1368DR,6290,8816,15163,0.118,551
2020-05-23T03:07:38,42.805,6.029,CST-1368DR,6290,8813,15158,0.119,551
2020-05-23T03:10:40,42.805,6.029,CST-1368DR,6290,8816,15163,0.118,551
2020-05-23T03:13:42,42.805,6.029,CST-1368DR,6289,8815,15164,0.117,551
2020-05-23T03:16:44,42.805,6.029,CST-1368DR,6289,8815,15163,0.118,551
2020-05-23T03:19:45,42.805,6.029,CST-1368DR,6289,8813,15161,0.118,551
2020-05-23T03:22:47,42.805,6.029,CST-1368DR,6289,8815,15164,0.117,551
2020-05-23T03:25:49,42.805,6.029,CST-1368DR,6289,8814,15162,0.118,551
2020-05-23T03:28:51,42.805,6.029,CST-1368DR,6289,8815,15163,0.118,551
2020-05-23T03:31:52,42.805,6.029,CST-1368DR,6290,8816,15163,0.118,551
2020-05-23T03:34:54,42.805,6.029,CST-1368DR,6289,8813,15161,0.118,551
2020-05-23T03:37:56,42.805,6.029,CST-1368DR,6289,8816,15165,0.117,550
2020-05-23T03:40:57,42.805,6.029,CST-1368DR,6290,8816,15163,0.118,550
2020-05-23T03:43:59,42.805,6.029,CST-1368DR,6289,8816,15165,0.117,551
2020-05-23T03:47:01,42.805,6.029,CST-1368DR,6289,8816,15165,0.117,551
2020-05-23T03:50:02,42.805,6.029,CST-1368DR,6289,8816,15165,0.117,551
2020-05-23T03:53:04,42.805,6.029,CST-1368DR,6289,8815,15164,0.117,551
2020-05-23T03:56:06,42.805,6.029,CST-1368DR,6289,8815,15163,0.118,551
2020-05-23T03:59:07,42.805,6.029,CST-1368DR,6289,8816,15165,0.117,551
2020-05-23T04:02:09,42.805,6.029,CST-1368DR,6289,8816,15165,0.117,551
2020-05-23T04:05:11,42.805,6.029,CST-1368DR,6289,8815,15163,0.118,550
2020-05-23T04:08:13,42.805,6.029,CST-1368DR,6289,8815,15163,0.118,551
2020-05-23T04:11:15,42.805,6.029,CST-1368DR,6289,8816,15165,0.117,551
2020-05-23T04:14:16,42.805,6.029,CST-1368DR,6289,8816,15165,0.117,550
2020-05-23T04:17:18,42.805,6.029,CST-1368DR,6289,8813,15160,0.119,551
2020-05-23T04:20:20,42.805,6.029,CST-1368DR,6289,8816,15165,0.117,551
2020-05-23T04:23:21,42.805,6.029,CST-1368DR,6289,8811,15158,0.119,551
2020-05-23T04:26:23,42.805,6.029,CST-1368DR,6289,8815,15164,0.117,551
2020-05-23T04:29:25,42.805,6.029,CST-1368DR,6289,8816,15165,0.117,551
2020-05-23T04:32:26,42.805,6.029,CST-1368DR,6289,8814,15162,0.118,551
2020-05-23T04:35:28,42.805,6.029,CST-1368DR,6289,8817,15167,0.117,551
2020-05-23T04:38:30,42.805,6.029,CST-1368DR,6289,8816,15165,0.117,551
2020-05-23T04:41:31,42.805,6.029,CST-1368DR,6289,8814,15162,0.118,551
2020-05-23T04:44:33,42.805,6.029,CST-1368DR,6289,8816,15165,0.117,551
2020-05-23T04:47:35,42.805,6.029,CST-1368DR,6289,8816,15165,0.117,551
2020-05-23T04:50:37,42.805,6.029,CST-1368DR,6289,8816,15166,0.117,551
2020-05-23T04:53:38,42.805,6.029,CST-1368DR,6289,8815,15164,0.117,551
2020-05-23T04:56:40,42.805,6.029,CST-1368DR,6289,8816,15165,0.117,551
2020-05-23T04:59:42,42.805,6.029,CST-1368DR,6289,8815,15164,0.117,551
2020-05-23T05:02:44,42.805,6.029,CST-1368DR,6289,8815,15164,0.117,550
2020-05-23T05:05:45,42.805,6.029,CST-1368DR,6289,8815,15164,0.117,551
2020-05-23T05:08:47,42.805,6.029,CST-1368DR,6289,8816,15165,0.117,551
2020-05-23T05:11:49,42.805,6.029,CST-1368DR,6289,8816,15165,0.117,550
2020-05-23T05:14:50,42.805,6.029,CST-1368DR,6289,8816,15165,0.117,551
2020-05-23T05:17:52,42.805,6.029,CST-1368DR,6289,8816,15165,0.117,551
2020-05-23T05:20:54,42.805,6.029,CST-1368DR,6289,8815,15164,0.117,550
2020-05-23T05:23:55,42.805,6.029,CST-1368DR,6289,8815,15164,0.117,551
2020-05-23T05:26:57,42.805,6.029,CST-1368DR,6289,8816,15165,0.117,551
2020-05-23T05:29:59,42.805,6.029,CST-1368DR,6289,8815,15164,0.117,551
2020-05-23T05:33:01,42.805,6.029,CST-1368DR,6289,8816,15165,0.117,551
2020-05-23T05:36:02,42.805,6.029,CST-1368DR,6289,8816,15165,0.117,551
2020-05-23T05:39:04,42.805,6.029,CST-1368DR,6289,8816,15165,0.117,551
2020-05-23T05:42:06,42.805,6.029,CST-1368DR,6289,8816,15166,0.117,551
2020-05-23T05:45:07,42.805,6.029,CST-1368DR,6289,8815,15164,0.117,551
2020-05-23T05:48:09,42.805,6.029,CST-1368DR,6289,8813,15160,0.119,551
2020-05-23T05:51:11,42.805,6.029,CST-1368DR,6289,8816,15165,0.117,551
2020-05-23T05:54:13,42.805,6.029,CST-1368DR,6289,8816,15166,0.117,551
2020-05-23T05:57:14,42.805,6.029,CST-1368DR,6289,8816,15165,0.117,551
2020-05-23T06:00:16,42.805,6.029,CST-1368DR,6289,8817,15167,0.117,551
2020-05-23T06:03:18,42.805,6.029,CST-1368DR,6289,8814,15162,0.118,550
2020-05-23T06:06:19,42.805,6.029,CST-1368DR,6289,8816,15166,0.117,551
2020-05-23T06:09:21,42.805,6.029,CST-1368DR,6289,8815,15164,0.117,551
2020-05-23T06:12:23,42.805,6.029,CST-1368DR,6289,8815,15163,0.118,551
2020-05-23T06:15:25,42.805,6.029,CST-1368DR,6289,8814,15163,0.118,551
2020-05-23T06:18:26,42.805,6.029,CST-1368DR,6289,8814,15161,0.118,551
2020-05-23T06:21:28,42.805,6.029,CST-1368DR,6289,8814,15161,0.118,551
2020-05-23T06:24:30,42.805,6.029,CST-1368DR,6289,8815,15163,0.118,551
2020-05-23T06:27:31,42.805,6.029,CST-1368DR,6289,8816,15165,0.117,551
2020-05-23T06:30:33,42.805,6.029,CST-1368DR,6289,8815,15164,0.117,551
2020-05-23T06:33:35,42.805,6.029,CST-1368DR,6289,8815,15163,0.118,551
2020-05-23T06:36:37,42.805,6.029,CST-1368DR,6289,8816,15165,0.117,551
2020-05-23T06:39:38,42.805,6.029,CST-1368DR,6289,8816,15166,0.117,551
2020-05-23T06:42:40,42.805,6.029,CST-1368DR,6289,8815,15164,0.117,551
2020-05-23T06:45:42,42.805,6.029,CST-1368DR,6289,8814,15163,0.118,551
2020-05-23T06:48:43,42.805,6.029,CST-1368DR,6289,8815,15163,0.118,551
2020-05-23T06:51:45,42.805,6.029,CST-1368DR,6289,8815,15163,0.118,551
2020-05-23T06:54:47,42.805,6.029,CST-1368DR,6289,8813,15161,0.118,551
2020-05-23T06:57:49,42.805,6.029,CST-1368DR,6289,8815,15164,0.117,551
2020-05-23T07:00:50,42.805,6.029,CST-1368DR,6289,8815,15164,0.117,551
2020-05-23T07:03:52,42.805,6.029,CST-1368DR,6289,8811,15157,0.119,551
2020-05-23T07:06:54,42.805,6.029,CST-1368DR,6289,8811,15157,0.119,551
2020-05-23T07:09:55,42.805,6.029,CST-1368DR,6289,8810,15155,0.120,551
2020-05-23T07:12:57,42.805,6.029,CST-1368DR,6289,8812,15159,0.119,551
2020-05-23T07:15:59,42.805,6.029,CST-1368DR,6289,8812,15158,0.119,551
2020-05-23T07:19:00,42.805,6.029,CST-1368DR,6289,8815,15164,0.117,551
2020-05-23T07:22:02,42.805,6.029,CST-1368DR,6289,8815,15163,0.118,551
2020-05-23T07:25:04,42.805,6.029,CST-1368DR,6289,8815,15164,0.117,551
2020-05-23T07:28:05,42.805,6.029,CST-1368DR,6289,8815,15163,0.118,551
2020-05-23T07:31:07,42.805,6.029,CST-1368DR,6289,8815,15164,0.117,551
2020-05-23T07:34:09,42.805,6.029,CST-1368DR,6289,8815,15164,0.117,551
2020-05-23T07:37:11,42.805,6.029,CST-1368DR,6289,8815,15163,0.118,551
2020-05-23T07:40:13,42.805,6.029,CST-1368DR,6289,8815,15164,0.117,551
2020-05-23T07:43:14,42.805,6.029,CST-1368DR,6289,8814,15162,0.118,551
2020-05-23T07:46:16,42.805,6.029,CST-1368DR,6289,8813,15161,0.118,551
2020-05-23T07:49:18,42.805,6.029,CST-1368DR,6289,8814,15161,0.118,551
2020-05-23T07:52:19,42.805,6.029,CST-1368DR,6289,8814,15162,0.118,551
2020-05-23T07:55:21,42.805,6.029,CST-1368DR,6289,8814,15162,0.118,551
2020-05-23T07:58:23,42.805,6.029,CST-1368DR,6289,8812,15159,0.119,551
2020-05-23T08:01:25,42.805,6.029,CST-1368DR,6289,8813,15160,0.119,551
2020-05-23T08:04:26,42.805,6.029,CST-1368DR,6289,8814,15163,0.118,551
2020-05-23T08:07:28,42.805,6.029,CST-1368DR,6289,8814,15162,0.118,551
2020-05-23T08:10:30,42.805,6.029,CST-1368DR,6288,8813,15162,0.118,551
2020-05-23T08:13:31,42.805,6.029,CST-1368DR,6289,8814,15163,0.118,551
2020-05-23T08:16:33,42.805,6.029,CST-1368DR,6288,8813,15162,0.118,551
2020-05-23T08:19:35,42.805,6.029,CST-1368DR,6288,8811,15159,0.119,551
2020-05-23T08:22:36,42.805,6.029,CST-1368DR,6288,8814,15164,0.117,551
2020-05-23T08:25:38,42.805,6.029,CST-1368DR,6288,8813,15163,0.118,551
2020-05-23T08:28:40,42.805,6.029,CST-1368DR,6288,8813,15163,0.118,551
2020-05-23T08:31:41,42.805,6.029,CST-1368DR,6288,8814,15164,0.117,551
2020-05-23T08:34:43,42.805,6.029,CST-1368DR,6288,8814,15165,0.117,551
2020-05-23T08:37:45,42.805,6.029,CST-1368DR,6288,8814,15164,0.117,551
2020-05-23T08:40:47,42.805,6.029,CST-1368DR,6288,8814,15164,0.117,550
2020-05-23T08:43:48,42.805,6.029,CST-1368DR,6288,8813,15163,0.118,551
2020-05-23T08:46:50,42.805,6.029,CST-1368DR,6288,8814,15165,0.117,551
2020-05-23T08:49:52,42.805,6.029,CST-1368DR,6288,8813,15163,0.118,551
2020-05-23T08:52:53,42.805,6.029,CST-1368DR,6288,8814,15165,0.117,551
2020-05-23T08:55:55,42.805,6.029,CST-1368DR,6288,8814,15165,0.117,551
2020-05-23T08:58:57,42.805,6.029,CST-1368DR,6288,8813,15163,0.118,551
2020-05-23T09:01:58,42.805,6.029,CST-1368DR,6288,8814,15165,0.117,550
2020-05-23T09:05:00,42.805,6.029,CST-1368DR,6288,8815,15165,0.117,551
2020-05-23T09:08:02,42.805,6.029,CST-1368DR,6288,8813,15163,0.118,550
2020-05-23T09:11:03,42.805,6.029,CST-1368DR,6288,8814,15164,0.117,551
2020-05-23T09:14:05,42.805,6.029,CST-1368DR,6288,8810,15157,0.119,551
2020-05-23T09:17:07,42.805,6.029,CST-1368DR,6288,8814,15164,0.117,551
2020-05-23T09:20:08,42.805,6.029,CST-1368DR,6288,8813,15163,0.118,551
2020-05-23T09:23:10,42.805,6.029,CST-1368DR,6288,8812,15161,0.118,551
2020-05-23T09:26:12,42.805,6.029,CST-1368DR,6288,8814,15165,0.117,551
2020-05-23T09:29:14,42.805,6.029,CST-1368DR,6288,8811,15159,0.119,550
2020-05-23T09:32:15,42.805,6.029,CST-1368DR,6288,8814,15164,0.117,551
2020-05-23T09:35:17,42.805,6.029,CST-1368DR,6288,8813,15162,0.118,551
2020-05-23T09:38:19,42.805,6.029,CST-1368DR,6288,8813,15162,0.118,551
2020-05-23T09:41:20,42.805,6.029,CST-1368DR,6288,8813,15163,0.118,551
2020-05-23T09:44:22,42.805,6.029,CST-1368DR,6288,8813,15163,0.118,551
2020-05-23T09:47:24,42.805,6.029,CST-1368DR,6288,8814,15164,0.117,551
2020-05-23T09:50:26,42.805,6.029,CST-1368DR,6288,8813,15162,0.118,551
2020-05-23T09:53:27,42.805,6.029,CST-1368DR,6288,8813,15162,0.118,551
2020-05-23T09:56:29,42.805,6.029,CST-1368DR,6288,8812,15161,0.118,551
2020-05-23T09:59:31,42.805,6.029,CST-1368DR,6288,8812,15161,0.118,551
2020-05-23T10:02:32,42.805,6.029,CST-1368DR,6288,8811,15159,0.119,551
2020-05-23T10:05:34,42.805,6.029,CST-1368DR,6287,8811,15161,0.118,551
2020-05-23T10:08:36,42.805,6.029,CST-1368DR,6287,8812,15163,0.118,551
2020-05-23T10:11:38,42.805,6.029,CST-1368DR,6287,8809,15159,0.119,551
2020-05-23T10:14:39,42.805,6.029,CST-1368DR,6287,8813,15164,0.117,550
2020-05-23T10:17:41,42.805,6.029,CST-1368DR,6287,8813,15165,0.117,551
2020-05-23T10:20:43,42.805,6.029,CST-1368DR,6287,8811,15162,0.118,551
2020-05-23T10:23:44,42.805,6.029,CST-1368DR,6287,8810,15159,0.119,551
2020-05-23T10:26:46,42.805,6.029,CST-1368DR,6287,8811,15162,0.118,551
2020-05-23T10:29:48,42.805,6.029,CST-1368DR,6287,8811,15161,0.118,551
2020-05-23T10:32:50,42.805,6.029,CST-1368DR,6287,8809,15158,0.119,551
2020-05-23T10:35:51,42.805,6.029,CST-1368DR,6287,8812,15163,0.118,551
2020-05-23T10:38:53,42.805,6.029,CST-1368DR,6287,8811,15162,0.118,551
2020-05-23T10:41:55,42.805,6.029,CST-1368DR,6287,8812,15163,0.118,550
2020-05-23T10:44:56,42.805,6.029,CST-1368DR,6287,8812,15163,0.118,550
2020-05-23T10:47:58,42.805,6.029,CST-1368DR,6287,8811,15162,0.118,551
2020-05-23T10:51:00,42.805,6.029,CST-1368DR,6287,8811,15162,0.118,551
2020-05-23T10:54:01,42.805,6.029,CST-1368DR,6287,8813,15164,0.117,550
2020-05-23T10:57:03,42.805,6.029,CST-1368DR,6287,8813,15166,0.117,551
2020-05-23T11:00:05,42.805,6.029,CST-1368DR,6287,8812,15163,0.118,551
2020-05-23T11:03:07,42.805,6.029,CST-1368DR,6287,8813,15164,0.117,551
2020-05-23T11:06:08,42.805,6.029,CST-1368DR,6287,8811,15161,0.118,551
2020-05-23T11:09:10,42.805,6.029,CST-1368DR,6287,8810,15160,0.119,551
2020-05-23T11:12:12,42.805,6.029,CST-1368DR,6287,8811,15161,0.118,551
2020-05-23T11:15:14,42.805,6.029,CST-1368DR,6287,8810,15160,0.119,551
2020-05-23T11:18:15,42.805,6.029,CST-1368DR,6287,8810,15160,0.119,551
2020-05-23T11:21:17,42.805,6.029,CST-1368DR,6287,8812,15164,0.117,550
2020-05-23T11:24:19,42.805,6.029,CST-1368DR,6287,8811,15162,0.118,551
2020-05-23T11:27:20,42.805,6.029,CST-1368DR,6287,8812,15164,0.117,551
2020-05-23T11:30:22,42.805,6.029,CST-1368DR,6287,8811,15161,0.118,551
2020-05-23T11:33:24,42.805,6.029,CST-1368DR,6287,8812,15163,0.118,551
2020-05-23T11:36:26,42.805,6.029,CST-1368DR,6287,8812,15163,0.118,551
2020-05-23T11:39:27,42.805,6.029,CST-1368DR,6287,8813,15165,0.117,550
2020-05-23T11:42:29,42.805,6.029,CST-1368DR,6287,8813,15165,0.117,551
2020-05-23T11:45:31,42.805,6.029,CST-1368DR,6287,8813,15165,0.117,551
2020-05-23T11:48:33,42.805,6.029,CST-1368DR,6288,8811,15160,0.119,551
2020-05-23T11:51:34,42.805,6.029,CST-1368DR,6288,8813,15162,0.118,550
2020-05-23T11:54:36,42.805,6.029,CST-1368DR,6288,8813,15163,0.118,551
2020-05-23T11:57:38,42.805,6.029,CST-1368DR,6288,8811,15159,0.119,550
2020-05-23T12:00:39,42.805,6.029,CST-1368DR,6288,8812,15162,0.118,551
2020-05-23T12:03:41,42.805,6.029,CST-1368DR,6288,8813,15162,0.118,551
2020-05-23T12:06:43,42.805,6.029,CST-1368DR,6288,8812,15161,0.118,551
2020-05-23T12:09:44,42.805,6.029,CST-1368DR,6288,8812,15161,0.118,551
2020-05-23T12:12:46,42.805,6.029,CST-1368DR,6288,8812,15161,0.118,551
2020-05-23T12:15:48,42.805,6.029,CST-1368DR,6288,8811,15159,0.119,551
2020-05-23T12:18:50,42.805,6.029,CST-1368DR,6288,8812,15161,0.118,551
2020-05-23T12:21:51,42.805,6.029,CST-1368DR,6288,8814,15164,0.117,551
2020-05-23T12:24:53,42.805,6.029,CST-1368DR,6288,8813,15162,0.118,550
2020-05-23T12:27:55,42.805,6.029,CST-1368DR,6288,8809,15155,0.120,551
2020-05-23T12:30:56,42.805,6.029,CST-1368DR,6288,8811,15159,0.119,551
2020-05-23T12:33:58,42.805,6.029,CST-1368DR,6288,8811,15160,0.119,551
2020-05-23T12:37:00,42.805,6.029,CST-1368DR,6288,8812,15161,0.118,551
2020-05-23T12:40:01,42.805,6.029,CST-1368DR,6288,8812,15161,0.118,551
2020-05-23T12:43:03,42.805,6.029,CST-1368DR,6288,8813,15162,0.118,551
2020-05-23T12:46:05,42.805,6.029,CST-1368DR,6288,8811,15160,0.119,551
2020-05-23T12:49:06,42.805,6.029,CST-1368DR,6288,8812,15161,0.118,551
2020-05-23T12:52:08,42.805,6.029,CST-1368DR,6288,8812,15161,0.118,551
2020-05-23T12:55:10,42.805,6.029,CST-1368DR,6288,8811,15159,0.119,551
2020-05-23T12:58:11,42.805,6.029,CST-1368DR,6288,8813,15162,0.118,551
2020-05-23T13:01:13,42.805,6.029,CST-1368DR,6287,8809,15159,0.119,551
2020-05-23T13:04:15,42.805,6.029,CST-1368DR,6288,8813,15162,0.118,551
2020-05-23T13:07:16,42.805,6.029,CST-1368DR,6287,8812,15164,0.117,551
2020-05-23T13:10:18,42.805,6.029,CST-1368DR,6287,8813,15165,0.117,551
2020-05-23T13:13:20,42.805,6.029,CST-1368DR,6288,8813,15162,0.118,551
2020-05-23T13:16:22,42.805,6.029,CST-1368DR,6287,8812,15163,0.118,551
2020-05-23T13:19:23,42.805,6.029,CST-1368DR,6287,8811,15162,0.118,551
2020-05-23T13:22:25,42.805,6.029,CST-1368DR,6287,8807,15155,0.120,551
2020-05-23T13:25:27,42.805,6.029,CST-1368DR,6287,8813,15165,0.117,551
2020-05-23T13:28:28,42.805,6.029,CST-1368DR,6287,8810,15160,0.119,551
2020-05-23T13:31:30,42.805,6.029,CST-1368DR,6288,8808,15154,0.120,551
2020-05-23T13:34:32,42.805,6.029,CST-1368DR,6288,8810,15158,0.119,551
2020-05-23T13:37:33,42.805,6.029,CST-1368DR,6288,8809,15156,0.120,550
2020-05-23T13:40:35,42.805,6.029,CST-1368DR,6287,8812,15164,0.117,551
2020-05-23T13:43:37,42.805,6.029,CST-1368DR,6287,8811,15162,0.118,551
2020-05-23T13:46:39,42.805,6.029,CST-1368DR,6288,8812,15162,0.118,551
2020-05-23T13:49:40,42.805,6.029,CST-1368DR,6288,8813,15162,0.118,551
2020-05-23T13:52:42,42.805,6.029,CST-1368DR,6288,8813,15162,0.118,551
2020-05-23T13:55:44,42.805,6.029,CST-1368DR,6288,8813,15162,0.118,550
2020-05-23T13:58:45,42.805,6.029,CST-1368DR,6288,8812,15161,0.118,551
2020-05-23T14:01:47,42.805,6.029,CST-1368DR,6287,8811,15162,0.118,551
2020-05-23T14:04:49,42.805,6.029,CST-1368DR,6288,8813,15162,0.118,551
2020-05-23T14:07:51,42.805,6.029,CST-1368DR,6288,8813,15162,0.118,551
2020-05-23T14:10:52,42.805,6.029,CST-1368DR,6288,8811,15159,0.119,551
2020-05-23T14:13:54,42.805,6.029,CST-1368DR,6287,8807,15154,0.120,551
2020-05-23T14:16:56,42.805,6.029,CST-1368DR,6288,8813,15162,0.118,551
2020-05-23T14:19:58,42.805,6.029,CST-1368DR,6287,8811,15161,0.118,551
2020-05-23T14:23:00,42.805,6.029,CST-1368DR,6288,8813,15162,0.118,551
2020-05-23T14:26:01,42.805,6.029,CST-1368DR,6288,8812,15161,0.118,551
2020-05-23T14:29:03,42.805,6.029,CST-1368DR,6288,8812,15162,0.118,551
2020-05-23T14:32:05,42.805,6.029,CST-1368DR,6288,8812,15161,0.118,551
2020-05-23T14:35:07,42.805,6.029,CST-1368DR,6288,8814,15165,0.117,551
2020-05-23T14:38:08,42.805,6.029,CST-1368DR,6288,8813,15163,0.118,551
2020-05-23T14:41:10,42.805,6.029,CST-1368DR,6288,8811,15159,0.119,550
2020-05-23T14:44:12,42.805,6.029,CST-1368DR,6287,8812,15163,0.118,551
2020-05-23T14:47:14,42.805,6.029,CST-1368DR,6287,8812,15164,0.117,551
2020-05-23T14:50:15,42.805,6.029,CST-1368DR,6287,8812,15164,0.117,551
2020-05-23T14:53:17,42.805,6.029,CST-1368DR,6287,8811,15161,0.118,551
2020-05-23T14:56:19,42.805,6.029,CST-1368DR,6287,8813,15164,0.117,551
2020-05-23T14:59:21,42.805,6.029,CST-1368DR,6287,8813,15165,0.117,551
2020-05-23T15:02:22,42.805,6.029,CST-1368DR,6287,8811,15162,0.118,551
2020-05-23T15:05:24,42.805,6.029,CST-1368DR,6287,8812,15164,0.117,550
2020-05-23T15:08:26,42.805,6.029,CST-1368DR,6287,8812,15164,0.117,551
2020-05-23T15:11:27,42.805,6.029,CST-1368DR,6287,8813,15164,0.117,551
2020-05-23T15:14:29,42.805,6.029,CST-1368DR,6287,8812,15163,0.118,551
2020-05-23T15:17:31,42.805,6.029,CST-1368DR,6287,8811,15161,0.118,551
2020-05-23T15:20:32,42.805,6.029,CST-1368DR,6287,8812,15164,0.117,551
2020-05-23T15:23:34,42.805,6.029,CST-1368DR,6287,8811,15162,0.118,551
2020-05-23T15:26:36,42.805,6.029,CST-1368DR,6287,8810,15160,0.119,551
2020-05-23T15:29:37,42.805,6.029,CST-1368DR,6287,8812,15163,0.118,551
2020-05-23T15:32:39,42.805,6.029,CST-1368DR,6287,8814,15166,0.117,551
2020-05-23T15:35:41,42.805,6.029,CST-1368DR,6287,8813,15165,0.117,551
2020-05-23T15:38:42,42.805,6.029,CST-1368DR,6287,8811,15162,0.118,551
2020-05-23T15:41:44,42.805,6.029,CST-1368DR,6287,8811,15162,0.118,551
2020-05-23T15:44:46,42.805,6.029,CST-1368DR,6287,8811,15162,0.118,551
2020-05-23T15:47:48,42.805,6.029,CST-1368DR,6287,8812,15163,0.118,551
2020-05-23T15:50:49,42.805,6.029,CST-1368DR,6287,8810,15159,0.119,551
2020-05-23T15:53:51,42.805,6.029,CST-1368DR,6287,8811,15162,0.118,550
2020-05-23T15:56:53,42.805,6.029,CST-1368DR,6287,8810,15159,0.119,551
2020-05-23T15:59:54,42.805,6.029,CST-1368DR,6287,8813,15165,0.117,551
2020-05-23T16:02:56,42.805,6.029,CST-1368DR,6287,8811,15162,0.118,551
2020-05-23T16:05:58,42.805,6.029,CST-1368DR,6287,8811,15161,0.118,551
2020-05-23T16:09:00,42.805,6.029,CST-1368DR,6287,8811,15161,0.118,550
2020-05-23T16:12:01,42.805,6.029,CST-1368DR,6287,8811,15161,0.118,551
2020-05-23T16:15:03,42.805,6.029,CST-1368DR,6287,8807,15154,0.120,551
2020-05-23T16:18:05,42.805,6.029,CST-1368DR,6287,8812,15164,0.117,551
2020-05-23T16:21:06,42.805,6.029,CST-1368DR,6287,8812,15164,0.117,551
2020-05-23T16:24:08,42.805,6.029,CST-1368DR,6287,8812,15163,0.118,551
2020-05-23T16:27:10,42.805,6.029,CST-1368DR,6287,8810,15160,0.119,551
2020-05-23T16:30:12,42.805,6.029,CST-1368DR,6287,8813,15164,0.117,551
2020-05-23T16:33:13,42.805,6.029,CST-1368DR,6287,8812,15164,0.117,551
2020-05-23T16:36:15,42.805,6.029,CST-1368DR,6287,8813,15165,0.117,551
2020-05-23T16:39:17,42.805,6.029,CST-1368DR,6287,8809,15158,0.119,551
2020-05-23T16:42:18,42.805,6.029,CST-1368DR,6287,8811,15161,0.118,551
2020-05-23T16:45:20,42.805,6.029,CST-1368DR,6287,8811,15162,0.118,551
2020-05-23T16:48:22,42.805,6.029,CST-1368DR,6287,8813,15164,0.117,551
2020-05-23T16:51:24,42.805,6.029,CST-1368DR,6287,8811,15161,0.118,551
2020-05-23T16:54:25,42.805,6.029,CST-1368DR,6287,8811,15161,0.118,551